{"data":{"norad_id":44903,"intl_designator":"2019-095A","name":"ELEKTRO-L 3","alt_names":[],"object_type":"PAYLOAD","status":"ACTIVE","operator":null,"country":"CIS","launch_date":"2019-12-24","launch_site_code":"TYMSC","launch_vehicle":null,"mission":null,"orbit_class":"UNKNOWN","rcs_meters":null,"size_class":null,"mass_kg":null,"dimensions":null,"purposes":["comms","earth_obs"],"wikipedia_slug":null,"has_3d_model":false,"image_url":null,"decayed_at":null,"tle_current":{"epoch":"2026-05-25T04:06:15.188832Z","epoch_age_seconds":56155,"freshness":"FRESH","line1":"1 44903U 19095A   26145.17100913 -.00000098  00000+0  00000+0 0  9990","line2":"2 44903   0.1998  80.4578 0001072 325.2895 334.5065  1.00271061 23475","mean_motion":1.00271061,"eccentricity":0.0001072,"inclination_deg":0.1998,"raan_deg":80.4578,"arg_perigee_deg":325.2895,"mean_anomaly_deg":334.5065,"bstar":0,"rev_number":2347,"period_min":1436.107273264,"perigee_km":35782.27784487,"apogee_km":35791.318006918,"semimajor_km":42164.934925894,"source":"CELESTRAK","updated_at":"2026-05-25T13:38:14.091245Z"}}}